Time,TemperatureF,DewpointF,PressureIn,WindDirection,WindDirectionDegrees,WindSpeedMPH,WindSpeedGustMPH,Humidity,HourlyPrecipIn,Conditions,Clouds,dailyrainin,SoftwareType,DateUTC
2013-02-08 00:02:00,54.0,46.7,29.55,SSW,202,0.0,7.2,76,0.00,,BKN,0.00,WUHU21623XXSP,2013-02-07 22:02:00,
2013-02-08 00:27:00,54.3,44.8,29.54,SSW,203,0.0,0.0,70,0.00,,BKN,0.00,WUHU21623XXSP,2013-02-07 22:27:00,
2013-02-08 01:27:00,54.0,44.2,29.55,SW,225,3.4,3.4,69,0.00,,BKN,0.00,WUHU21623XXSP,2013-02-07 23:27:00,
2013-02-08 02:27:00,54.3,43.3,29.55,SW,225,5.2,5.2,66,0.00,,BKN,0.00,WUHU21623XXSP,2013-02-08 00:27:00,
2013-02-08 03:27:00,53.2,38.4,29.55,SSW,203,4.4,4.4,57,0.00,,BKN,0.00,WUHU21623XXSP,2013-02-08 01:27:00,
2013-02-08 04:27:00,52.3,38.5,29.55,East,90,0.0,0.0,59,0.00,,BKN,0.00,WUHU21623XXSP,2013-02-08 02:27:00,
2013-02-08 05:27:00,51.8,38.4,29.57,West,270,0.0,0.0,60,0.00,,BKN,0.00,WUHU21623XXSP,2013-02-08 03:27:00,
2013-02-08 06:27:00,49.1,38.7,29.58,SW,225,0.0,0.0,67,0.00,,BKN,0.00,WUHU21623XXSP,2013-02-08 04:27:00,
2013-02-08 07:27:00,48.4,40.6,29.59,South,180,0.0,0.0,74,0.00,,BKN,0.00,WUHU21623XXSP,2013-02-08 05:27:00,
2013-02-08 08:05:00,49.6,43.1,29.60,East,90,0.0,0.0,78,0.00,,BKN,0.00,WUHU21623XXSP,2013-02-08 06:05:00,
2013-02-08 08:10:00,50.2,42.7,29.60,NE,45,0.0,0.0,75,0.00,,BKN,0.00,WUHU21623XXSP,2013-02-08 06:10:00,
2013-02-08 08:15:00,50.4,42.8,29.60,NNE,22,0.0,0.0,75,0.00,,BKN,0.00,WUHU21623XXSP,2013-02-08 06:15:00,
2013-02-08 08:20:00,50.2,42.7,29.60,NNE,22,0.0,0.0,75,0.00,,BKN,0.00,WUHU21623XXSP,2013-02-08 06:20:00,
2013-02-08 08:25:00,50.5,42.9,29.61,NNW,337,0.0,0.0,75,0.00,,BKN,0.00,WUHU21623XXSP,2013-02-08 06:25:00,
2013-02-08 08:30:00,50.7,43.5,29.60,NNW,337,0.0,0.0,76,0.00,,BKN,0.00,WUHU21623XXSP,2013-02-08 06:30:00,
2013-02-08 08:35:00,50.9,43.0,29.60,NNW,337,0.0,0.0,74,0.00,,BKN,0.00,WUHU21623XXSP,2013-02-08 06:35:00,
2013-02-08 08:40:00,50.9,43.0,29.60,North,0,0.0,0.0,74,0.00,,BKN,0.00,WUHU21623XXSP,2013-02-08 06:40:00,
2013-02-08 08:45:00,51.4,43.5,29.60,NNE,22,0.0,0.0,74,0.00,,BKN,0.00,WUHU21623XXSP,2013-02-08 06:45:00,
2013-02-08 08:50:00,51.4,43.8,29.60,East,90,0.0,0.0,75,0.00,,BKN,0.00,WUHU21623XXSP,2013-02-08 06:50:00,
2013-02-08 08:55:00,51.4,43.5,29.60,East,90,0.0,0.0,74,0.00,,BKN,0.00,WUHU21623XXSP,2013-02-08 06:55:00,
2013-02-08 09:00:00,51.4,43.5,29.60,North,0,0.0,0.0,74,0.00,,BKN,0.00,WUHU21623XXSP,2013-02-08 07:00:00,
2013-02-08 09:05:00,51.3,43.0,29.60,North,0,0.0,0.0,73,0.00,,BKN,0.00,WUHU21623XXSP,2013-02-08 07:05:00,
2013-02-08 09:10:00,51.4,43.1,29.61,North,0,4.0,4.2,73,0.00,,BKN,0.00,WUHU21623XXSP,2013-02-08 07:10:00,
2013-02-08 09:15:00,51.4,43.1,29.61,NNE,22,2.4,4.2,73,0.00,,BKN,0.00,WUHU21623XXSP,2013-02-08 07:15:00,
2013-02-08 09:21:00,51.6,43.0,29.60,NNW,337,0.0,4.2,72,0.00,,BKN,0.00,WUHU21623XXSP,2013-02-08 07:21:00,
2013-02-08 09:26:00,52.2,43.5,29.61,NNW,337,0.0,0.0,72,0.00,,BKN,0.00,WUHU21623XXSP,2013-02-08 07:26:00,
2013-02-08 09:31:00,52.5,43.5,29.61,North,0,0.0,0.0,71,0.00,,BKN,0.00,WUHU21623XXSP,2013-02-08 07:31:00,
2013-02-08 09:36:00,52.5,42.7,29.61,NW,315,0.0,2.4,69,0.00,,BKN,0.00,WUHU21623XXSP,2013-02-08 07:36:00,
2013-02-08 09:41:00,52.5,42.4,29.61,NNW,337,0.0,2.4,68,0.00,,BKN,0.00,WUHU21623XXSP,2013-02-08 07:41:00,
2013-02-08 09:46:00,52.5,42.0,29.60,NNW,337,0.0,0.0,67,0.00,,BKN,0.00,WUHU21623XXSP,2013-02-08 07:46:00,
2013-02-08 09:51:00,52.9,42.0,29.60,NW,315,0.0,0.0,66,0.00,,BKN,0.00,WUHU21623XXSP,2013-02-08 07:51:00,
2013-02-08 09:56:00,53.1,41.4,29.60,WNW,292,0.0,0.0,64,0.00,,BKN,0.00,WUHU21623XXSP,2013-02-08 07:56:00,
2013-02-08 10:01:00,53.2,41.5,29.60,SE,135,0.0,0.0,64,0.00,,BKN,0.00,WUHU21623XXSP,2013-02-08 08:01:00,
2013-02-08 10:06:00,53.2,41.5,29.61,East,90,0.0,0.0,64,0.00,,BKN,0.00,WUHU21623XXSP,2013-02-08 08:06:00,
2013-02-08 10:11:00,53.2,41.0,29.61,NW,315,0.0,0.0,63,0.00,,BKN,0.00,WUHU21623XXSP,2013-02-08 08:11:00,
2013-02-08 10:16:00,53.2,40.6,29.61,WSW,247,0.0,0.0,62,0.00,,BKN,0.00,WUHU21623XXSP,2013-02-08 08:16:00,
2013-02-08 10:21:00,53.4,40.8,29.61,WSW,247,0.0,0.0,62,0.00,,BKN,0.00,WUHU21623XXSP,2013-02-08 08:21:00,
2013-02-08 10:26:00,53.8,40.8,29.61,WSW,247,0.0,0.0,61,0.00,,BKN,0.00,WUHU21623XXSP,2013-02-08 08:26:00,
2013-02-08 10:31:00,54.3,41.2,29.61,South,180,0.0,0.0,61,0.00,,BKN,0.00,WUHU21623XXSP,2013-02-08 08:31:00,
2013-02-08 10:36:00,54.3,40.4,29.61,SSE,157,0.0,5.9,59,0.00,,BKN,0.00,WUHU21623XXSP,2013-02-08 08:36:00,
2013-02-08 10:41:00,54.7,40.7,29.61,ESE,112,0.0,5.9,59,0.00,,BKN,0.00,WUHU21623XXSP,2013-02-08 08:41:00,
2013-02-08 10:46:00,55.2,40.8,29.62,SSE,157,4.4,9.4,58,0.00,,BKN,0.00,WUHU21623XXSP,2013-02-08 08:46:00,
2013-02-08 10:51:00,55.8,40.4,29.62,SSW,202,0.0,9.4,56,0.00,,BKN,0.00,WUHU21623XXSP,2013-02-08 08:51:00,
2013-02-08 10:57:00,55.8,39.5,29.61,WSW,247,1.8,9.4,54,0.00,,BKN,0.00,WUHU21623XXSP,2013-02-08 08:57:00,
2013-02-08 11:02:00,55.6,39.3,29.62,SSW,202,3.7,8.4,54,0.00,,BKN,0.00,WUHU21623XXSP,2013-02-08 09:02:00,
2013-02-08 11:07:00,55.2,38.4,29.61,SSE,157,8.1,15.3,53,0.00,,BKN,0.00,WUHU21623XXSP,2013-02-08 09:07:00,
2013-02-08 11:12:00,54.9,38.6,29.62,SSW,202,4.4,15.3,54,0.00,,BKN,0.00,WUHU21623XXSP,2013-02-08 09:12:00,
2013-02-08 11:17:00,54.9,39.1,29.61,South,180,3.4,13.3,55,0.00,,BKN,0.00,WUHU21623XXSP,2013-02-08 09:17:00,
2013-02-08 11:22:00,55.9,41.0,29.61,SW,225,2.0,12.5,57,0.00,,BKN,0.00,WUHU21623XXSP,2013-02-08 09:22:00,
2013-02-08 11:27:00,56.3,39.9,29.61,South,180,3.2,11.6,54,0.00,,BKN,0.00,WUHU21623XXSP,2013-02-08 09:27:00,
2013-02-08 11:32:00,56.3,39.9,29.61,SSW,202,2.0,10.6,54,0.00,,BKN,0.00,WUHU21623XXSP,2013-02-08 09:32:00,
2013-02-08 11:37:00,56.1,40.2,29.61,WSW,247,8.9,16.5,55,0.00,,BKN,0.00,WUHU21623XXSP,2013-02-08 09:37:00,
2013-02-08 11:42:00,56.3,39.9,29.61,SW,225,4.4,16.5,54,0.00,,BKN,0.00,WUHU21623XXSP,2013-02-08 09:42:00,
2013-02-08 11:47:00,56.7,40.3,29.61,SSE,157,0.0,12.1,54,0.00,,BKN,0.00,WUHU21623XXSP,2013-02-08 09:47:00,
2013-02-08 11:52:00,56.7,39.8,29.61,East,90,3.7,11.6,53,0.00,,BKN,0.00,WUHU21623XXSP,2013-02-08 09:52:00,
2013-02-08 11:57:00,56.7,39.3,29.61,SW,225,1.4,14.5,52,0.00,,BKN,0.00,WUHU21623XXSP,2013-02-08 09:57:00,
2013-02-08 12:02:00,56.1,39.2,29.60,SSE,157,0.0,14.5,53,0.00,,BKN,0.00,WUHU21623XXSP,2013-02-08 10:02:00,
2013-02-08 12:07:00,55.9,39.5,29.59,SW,225,5.9,12.1,54,0.00,,BKN,0.00,WUHU21623XXSP,2013-02-08 10:07:00,
2013-02-08 12:12:00,55.9,39.1,29.59,SSE,157,1.0,10.6,53,0.00,,BKN,0.00,WUHU21623XXSP,2013-02-08 10:12:00,
2013-02-08 12:17:00,55.9,39.1,29.59,South,180,1.8,9.4,53,0.00,,BKN,0.00,WUHU21623XXSP,2013-02-08 10:17:00,
2013-02-08 12:22:00,55.9,39.5,29.60,South,180,5.6,8.9,54,0.00,,BKN,0.00,WUHU21623XXSP,2013-02-08 10:22:00,
2013-02-08 12:27:00,55.9,39.5,29.60,SW,225,3.2,10.6,54,0.00,,BKN,0.00,WUHU21623XXSP,2013-02-08 10:27:00,
2013-02-08 12:32:00,55.9,39.5,29.59,SSW,202,0.0,10.6,54,0.00,,BKN,0.00,WUHU21623XXSP,2013-02-08 10:32:00,
2013-02-08 12:37:00,55.8,39.5,29.59,NNW,337,0.0,10.6,54,0.00,,BKN,0.00,WUHU21623XXSP,2013-02-08 10:37:00,
2013-02-08 12:42:00,55.8,39.9,29.59,NW,315,0.0,10.6,55,0.00,,BKN,0.00,WUHU21623XXSP,2013-02-08 10:42:00,
2013-02-08 12:47:00,55.8,39.9,29.59,SW,225,4.0,7.4,55,0.00,,BKN,0.00,WUHU21623XXSP,2013-02-08 10:47:00,
2013-02-08 12:52:00,55.8,39.5,29.59,SW,225,10.8,12.3,54,0.00,,BKN,0.00,WUHU21623XXSP,2013-02-08 10:52:00,
2013-02-08 12:57:00,55.8,39.0,29.60,West,270,2.8,12.3,53,0.00,,BKN,0.00,WUHU21623XXSP,2013-02-08 10:57:00,
2013-02-08 13:02:00,55.8,39.5,29.60,SW,225,4.7,10.6,54,0.00,,BKN,0.00,WUHU21623XXSP,2013-02-08 11:02:00,
2013-02-08 13:07:00,55.6,39.3,29.60,NNW,337,0.0,11.1,54,0.00,,BKN,0.00,WUHU21623XXSP,2013-02-08 11:07:00,
2013-02-08 13:12:00,55.6,39.3,29.60,SW,225,2.4,11.1,54,0.00,,BKN,0.00,WUHU21623XXSP,2013-02-08 11:12:00,
2013-02-08 13:17:00,55.6,39.3,29.60,WNW,292,0.0,7.4,54,0.00,,BKN,0.00,WUHU21623XXSP,2013-02-08 11:17:00,
2013-02-08 13:22:00,55.2,39.4,29.60,WNW,292,0.0,8.6,55,0.00,,BKN,0.00,WUHU21623XXSP,2013-02-08 11:22:00,
2013-02-08 13:27:00,55.4,40.0,29.60,NNW,337,0.0,8.6,56,0.00,,BKN,0.00,WUHU21623XXSP,2013-02-08 11:27:00,
2013-02-08 13:32:00,55.6,39.7,29.60,South,180,0.0,9.1,55,0.00,,BKN,0.00,WUHU21623XXSP,2013-02-08 11:32:00,
2013-02-08 13:37:00,55.8,40.9,29.60,SW,225,4.2,9.1,57,0.00,,BKN,0.00,WUHU21623XXSP,2013-02-08 11:37:00,
2013-02-08 13:42:00,55.9,40.5,29.60,SSE,157,0.0,7.6,56,0.00,,BKN,0.00,WUHU21623XXSP,2013-02-08 11:42:00,
2013-02-08 13:48:00,56.3,40.9,29.60,SSE,157,1.8,7.6,56,0.00,,BKN,0.00,WUHU21623XXSP,2013-02-08 11:48:00,
2013-02-08 13:53:00,55.8,39.9,29.60,SSW,202,0.0,7.6,55,0.00,,BKN,0.00,WUHU21623XXSP,2013-02-08 11:53:00,
2013-02-08 13:58:00,55.9,41.0,29.59,SW,225,0.0,5.4,57,0.00,,BKN,0.00,WUHU21623XXSP,2013-02-08 11:58:00,
2013-02-08 14:03:00,56.1,40.2,29.59,SW,225,2.0,9.6,55,0.00,,BKN,0.00,WUHU21623XXSP,2013-02-08 12:03:00,
2013-02-08 14:07:00,56.5,39.6,29.59,SW,225,1.8,9.6,53,0.00,,BKN,0.00,WUHU21623XXSP,2013-02-08 12:07:00,
2013-02-08 14:13:00,56.1,39.2,29.59,South,180,7.4,9.4,53,0.00,,BKN,0.00,WUHU21623XXSP,2013-02-08 12:13:00,
2013-02-08 14:18:00,56.3,39.4,29.59,West,270,3.2,11.1,53,0.00,,BKN,0.00,WUHU21623XXSP,2013-02-08 12:18:00,
2013-02-08 14:23:00,56.1,39.7,29.59,SSW,202,5.2,12.3,54,0.00,,BKN,0.00,WUHU21623XXSP,2013-02-08 12:23:00,
2013-02-08 14:27:00,55.9,40.0,29.59,SW,225,0.0,12.3,55,0.00,,BKN,0.00,WUHU21623XXSP,2013-02-08 12:27:00,
2013-02-08 14:32:00,55.9,40.5,29.59,South,180,4.9,11.8,56,0.00,,BKN,0.00,WUHU21623XXSP,2013-02-08 12:32:00,
2013-02-08 14:37:00,56.3,39.9,29.59,North,0,0.0,11.6,54,0.00,,BKN,0.00,WUHU21623XXSP,2013-02-08 12:37:00,
2013-02-08 14:42:00,56.5,41.1,29.59,WSW,247,4.9,11.6,56,0.00,,BKN,0.00,WUHU21623XXSP,2013-02-08 12:42:00,
2013-02-08 14:47:00,56.3,40.9,29.59,SW,225,2.8,10.8,56,0.00,,BKN,0.00,WUHU21623XXSP,2013-02-08 12:47:00,
2013-02-08 14:52:00,56.3,39.4,29.59,NNW,337,1.2,12.5,53,0.00,,BKN,0.00,WUHU21623XXSP,2013-02-08 12:52:00,
2013-02-08 14:57:00,56.1,38.7,29.59,SSW,202,4.7,12.5,52,0.00,,BKN,0.00,WUHU21623XXSP,2013-02-08 12:57:00,
2013-02-08 15:02:00,56.3,39.4,29.59,West,270,3.4,10.1,53,0.00,,BKN,0.00,WUHU21623XXSP,2013-02-08 13:02:00,
2013-02-08 15:07:00,56.3,38.4,29.58,SSW,202,1.2,12.1,51,0.00,,BKN,0.00,WUHU21623XXSP,2013-02-08 13:07:00,
2013-02-08 15:12:00,56.3,38.4,29.59,NNW,337,1.0,12.1,51,0.00,,BKN,0.00,WUHU21623XXSP,2013-02-08 13:12:00,
2013-02-08 15:17:00,56.1,38.7,29.59,NW,315,0.0,12.1,52,0.00,,BKN,0.00,WUHU21623XXSP,2013-02-08 13:17:00,
2013-02-08 15:22:00,55.9,39.1,29.59,NW,315,0.0,12.1,53,0.00,,BKN,0.00,WUHU21623XXSP,2013-02-08 13:22:00,
2013-02-08 15:28:00,55.8,39.0,29.59,WSW,247,7.9,10.3,53,0.00,,BKN,0.00,WUHU21623XXSP,2013-02-08 13:28:00,
2013-02-08 15:33:00,55.8,39.0,29.59,WSW,247,0.0,13.8,53,0.00,,BKN,0.00,WUHU21623XXSP,2013-02-08 13:33:00,
2013-02-08 15:38:00,55.8,39.0,29.59,WSW,247,4.0,13.8,53,0.00,,BKN,0.00,WUHU21623XXSP,2013-02-08 13:38:00,
2013-02-08 15:42:00,55.8,39.0,29.59,North,0,0.0,6.6,53,0.00,,BKN,0.00,WUHU21623XXSP,2013-02-08 13:42:00,
2013-02-08 15:47:00,55.9,39.5,29.59,WSW,247,0.0,7.9,54,0.00,,BKN,0.00,WUHU21623XXSP,2013-02-08 13:47:00,
2013-02-08 15:52:00,56.3,40.4,29.59,West,270,1.2,7.9,55,0.00,,BKN,0.00,WUHU21623XXSP,2013-02-08 13:52:00,
2013-02-08 15:57:00,56.1,41.2,29.60,West,270,0.0,11.6,57,0.00,,BKN,0.00,WUHU21623XXSP,2013-02-08 13:57:00,
2013-02-08 16:02:00,56.3,41.3,29.60,NNW,337,0.0,11.6,57,0.00,,BKN,0.00,WUHU21623XXSP,2013-02-08 14:02:00,
2013-02-08 16:07:00,56.1,41.6,29.60,South,180,0.0,4.9,58,0.00,,BKN,0.00,WUHU21623XXSP,2013-02-08 14:07:00,
2013-02-08 16:12:00,56.1,41.2,29.60,WNW,292,0.0,4.9,57,0.00,,BKN,0.00,WUHU21623XXSP,2013-02-08 14:12:00,
2013-02-08 16:18:00,56.3,40.9,29.61,SW,225,0.0,3.4,56,0.00,,BKN,0.00,WUHU21623XXSP,2013-02-08 14:18:00,
2013-02-08 16:22:00,56.7,41.3,29.61,West,270,0.0,3.2,56,0.00,,BKN,0.00,WUHU21623XXSP,2013-02-08 14:22:00,
2013-02-08 16:27:00,56.8,41.3,29.61,West,270,0.0,6.9,56,0.00,,BKN,0.00,WUHU21623XXSP,2013-02-08 14:27:00,
2013-02-08 16:33:00,56.3,39.4,29.61,SSW,202,0.0,9.1,53,0.00,,BKN,0.00,WUHU21623XXSP,2013-02-08 14:33:00,
2013-02-08 16:37:00,55.8,39.5,29.61,WNW,292,1.4,9.1,54,0.00,,BKN,0.00,WUHU21623XXSP,2013-02-08 14:37:00,
2013-02-08 16:43:00,55.6,38.8,29.61,West,270,0.0,6.9,53,0.00,,BKN,0.00,WUHU21623XXSP,2013-02-08 14:43:00,
2013-02-08 16:47:00,55.6,38.8,29.61,SW,225,6.9,6.9,53,0.00,,BKN,0.00,WUHU21623XXSP,2013-02-08 14:47:00,
2013-02-08 16:53:00,55.6,39.3,29.62,NW,315,0.0,6.9,54,0.00,,BKN,0.00,WUHU21623XXSP,2013-02-08 14:53:00,
2013-02-08 16:58:00,55.6,39.7,29.61,NE,45,0.0,4.0,55,0.00,,BKN,0.00,WUHU21623XXSP,2013-02-08 14:58:00,
2013-02-08 17:03:00,55.6,39.7,29.62,North,0,0.0,5.9,55,0.00,,BKN,0.00,WUHU21623XXSP,2013-02-08 15:03:00,
2013-02-08 17:08:00,55.4,40.0,29.62,North,0,0.0,8.4,56,0.00,,SCT,0.00,WUHU21623XXSP,2013-02-08 15:08:00,
2013-02-08 17:13:00,55.0,39.7,29.62,WNW,292,1.2,8.4,56,0.00,,SCT,0.00,WUHU21623XXSP,2013-02-08 15:13:00,
2013-02-08 17:18:00,54.9,40.0,29.62,SW,225,1.4,7.9,57,0.00,,SCT,0.00,WUHU21623XXSP,2013-02-08 15:18:00,
2013-02-08 17:23:00,54.5,40.1,29.62,SW,225,0.0,2.4,58,0.00,,SCT,0.00,WUHU21623XXSP,2013-02-08 15:23:00,
2013-02-08 17:28:00,54.3,39.9,29.62,WNW,292,0.0,4.0,58,0.00,,SCT,0.00,WUHU21623XXSP,2013-02-08 15:28:00,
2013-02-08 17:33:00,54.1,40.2,29.63,SW,225,0.0,9.4,59,0.00,,SCT,0.00,WUHU21623XXSP,2013-02-08 15:33:00,
2013-02-08 17:38:00,54.0,40.1,29.63,NE,45,0.0,9.4,59,0.00,,SCT,0.00,WUHU21623XXSP,2013-02-08 15:38:00,
2013-02-08 17:43:00,53.8,40.3,29.64,NNW,337,0.0,9.1,60,0.00,,SCT,0.00,WUHU21623XXSP,2013-02-08 15:43:00,
2013-02-08 17:48:00,53.8,40.8,29.64,South,180,4.0,9.1,61,0.00,,SCT,0.00,WUHU21623XXSP,2013-02-08 15:48:00,
2013-02-08 17:53:00,53.8,40.8,29.64,West,270,0.0,8.1,61,0.00,,SCT,0.00,WUHU21623XXSP,2013-02-08 15:53:00,
2013-02-08 17:58:00,53.6,41.0,29.65,East,90,0.0,9.1,62,0.00,,SCT,0.00,WUHU21623XXSP,2013-02-08 15:58:00,
2013-02-08 18:03:00,53.6,41.0,29.64,WSW,247,0.0,9.1,62,0.00,,SCT,0.00,WUHU21623XXSP,2013-02-08 16:03:00,
2013-02-08 18:08:00,53.2,40.6,29.65,South,180,0.0,5.2,62,0.00,,SCT,0.00,WUHU21623XXSP,2013-02-08 16:08:00,
2013-02-08 18:13:00,53.2,41.0,29.65,West,270,3.0,4.4,63,0.00,,SCT,0.00,WUHU21623XXSP,2013-02-08 16:13:00,
2013-02-08 18:18:00,53.2,40.6,29.65,WSW,247,0.0,4.4,62,0.00,,SCT,0.00,WUHU21623XXSP,2013-02-08 16:18:00,
2013-02-08 18:23:00,53.1,40.5,29.65,SSW,202,0.0,2.8,62,0.00,,SCT,0.00,WUHU21623XXSP,2013-02-08 16:23:00,
2013-02-08 18:28:00,53.2,40.6,29.65,SW,225,0.0,2.4,62,0.00,,SCT,0.00,WUHU21623XXSP,2013-02-08 16:28:00,
2013-02-08 18:33:00,53.1,40.5,29.65,SW,225,0.0,2.4,62,0.00,,SCT,0.00,WUHU21623XXSP,2013-02-08 16:33:00,
2013-02-08 18:38:00,52.7,40.2,29.65,SW,225,0.0,2.0,62,0.00,,SCT,0.00,WUHU21623XXSP,2013-02-08 16:38:00,
2013-02-08 18:43:00,52.5,40.0,29.66,WNW,292,0.0,2.0,62,0.00,,SCT,0.00,WUHU21623XXSP,2013-02-08 16:43:00,
2013-02-08 18:48:00,52.5,40.4,29.66,WSW,247,0.0,0.0,63,0.00,,SCT,0.00,WUHU21623XXSP,2013-02-08 16:48:00,
2013-02-08 18:53:00,52.5,40.8,29.66,SW,225,0.0,0.0,64,0.00,,SCT,0.00,WUHU21623XXSP,2013-02-08 16:53:00,
2013-02-08 18:58:00,52.5,40.8,29.66,WSW,247,2.4,2.4,64,0.00,,SCT,0.00,WUHU21623XXSP,2013-02-08 16:58:00,
2013-02-08 19:03:00,52.5,41.2,29.67,West,270,0.8,6.9,65,0.00,,SCT,0.00,WUHU21623XXSP,2013-02-08 17:03:00,
2013-02-08 19:08:00,52.5,41.2,29.67,WSW,247,0.0,8.1,65,0.00,,SCT,0.00,WUHU21623XXSP,2013-02-08 17:08:00,
2013-02-08 19:13:00,52.3,41.4,29.67,North,0,0.0,8.1,66,0.00,,BKN,0.00,WUHU21623XXSP,2013-02-08 17:13:00,
2013-02-08 19:18:00,52.2,41.7,29.67,SE,135,0.0,5.6,67,0.00,,OVC,0.00,WUHU21623XXSP,2013-02-08 17:18:00,
2013-02-08 19:23:00,52.2,41.7,29.67,SE,135,0.0,1.0,67,0.00,,OVC,0.00,WUHU21623XXSP,2013-02-08 17:23:00,
2013-02-08 19:28:00,52.0,42.3,29.67,SSE,157,0.0,0.0,69,0.00,,OVC,0.00,WUHU21623XXSP,2013-02-08 17:28:00,
2013-02-08 19:33:00,51.6,41.9,29.68,WNW,292,0.0,3.2,69,0.00,,OVC,0.00,WUHU21623XXSP,2013-02-08 17:33:00,
2013-02-08 19:57:00,50.9,42.3,29.68,SW,225,0.0,0.0,72,0.00,,OVC,0.00,WUHU21623XXSP,2013-02-08 17:57:00,
2013-02-08 20:27:00,50.2,42.7,29.70,NNW,338,0.0,0.0,75,0.00,,OVC,0.00,WUHU21623XXSP,2013-02-08 18:27:00,
2013-02-08 20:38:00,50.5,43.3,29.70,WSW,247,0.0,0.0,76,0.00,,SCT,0.00,WUHU21623XXSP,2013-02-08 18:38:00,
2013-02-08 20:43:00,50.5,43.3,29.70,SW,225,0.0,0.0,76,0.00,,SCT,0.00,WUHU21623XXSP,2013-02-08 18:43:00,
2013-02-08 20:48:00,50.4,43.2,29.70,WNW,292,0.0,2.4,76,0.00,,SCT,0.00,WUHU21623XXSP,2013-02-08 18:48:00,
2013-02-08 20:53:00,50.4,43.2,29.70,SW,225,1.8,10.6,76,0.00,,SCT,0.00,WUHU21623XXSP,2013-02-08 18:53:00,
2013-02-08 20:58:00,50.5,42.9,29.70,South,180,0.0,10.6,75,0.00,,SCT,0.00,WUHU21623XXSP,2013-02-08 18:58:00,
2013-02-08 21:03:00,50.5,42.9,29.71,WSW,247,0.0,7.2,75,0.00,,SCT,0.00,WUHU21623XXSP,2013-02-08 19:03:00,
2013-02-08 21:08:00,50.4,42.8,29.71,SSW,202,0.0,3.4,75,0.00,,SCT,0.00,WUHU21623XXSP,2013-02-08 19:08:00,
2013-02-08 21:13:00,50.5,42.9,29.70,WNW,292,0.0,4.2,75,0.00,,SCT,0.00,WUHU21623XXSP,2013-02-08 19:13:00,
2013-02-08 21:18:00,50.5,42.9,29.70,SW,225,0.0,4.2,75,0.00,,SCT,0.00,WUHU21623XXSP,2013-02-08 19:18:00,
2013-02-08 21:23:00,50.5,42.6,29.71,WSW,247,0.0,1.8,74,0.00,,SCT,0.00,WUHU21623XXSP,2013-02-08 19:23:00,
2013-02-08 21:28:00,50.5,42.3,29.71,WSW,247,0.0,2.8,73,0.00,,SCT,0.00,WUHU21623XXSP,2013-02-08 19:28:00,
2013-02-08 21:33:00,50.7,42.1,29.72,WNW,292,0.0,3.7,72,0.00,,SCT,0.00,WUHU21623XXSP,2013-02-08 19:33:00,
2013-02-08 21:38:00,50.7,41.7,29.72,NNW,337,0.0,3.7,71,0.00,,SCT,0.00,WUHU21623XXSP,2013-02-08 19:38:00,
2013-02-08 21:43:00,50.7,41.4,29.72,WNW,292,0.0,2.0,70,0.00,,SCT,0.00,WUHU21623XXSP,2013-02-08 19:43:00,
2013-02-08 21:48:00,50.5,41.2,29.72,North,0,0.0,3.0,70,0.00,,SCT,0.00,WUHU21623XXSP,2013-02-08 19:48:00,
2013-02-08 21:53:00,50.4,40.7,29.72,North,0,0.0,4.4,69,0.00,,SCT,0.00,WUHU21623XXSP,2013-02-08 19:53:00,
2013-02-08 21:58:00,50.4,40.7,29.72,SSW,202,1.8,4.4,69,0.00,,SCT,0.00,WUHU21623XXSP,2013-02-08 19:58:00,
2013-02-08 22:27:00,49.6,40.7,29.73,SSW,203,0.0,0.0,71,0.00,,SCT,0.00,WUHU21623XXSP,2013-02-08 20:27:00,
2013-02-08 23:27:00,48.4,41.2,29.75,South,180,0.0,0.0,76,0.00,,SCT,0.00,WUHU21623XXSP,2013-02-08 21:27:00,